Change the Weather History Date:

Monday, November 22, 2010

  Actual Average Record
Temperature  
Mean Temperature 77 °F 75 °F  
Max Temperature 81 °F 79 °F 88 °F (1880)
Min Temperature 72 °F 71 °F 55 °F (2006)
Degree Days  
Heating Degree Days 0 0  
Month to date heating degree days 0 0  
Since 1 July heating degree days 0 0  
Cooling Degree Days 12 10  
Month to date cooling degree days 202 250  
Year to date cooling degree days 4270 4458  
Growing Degree Days 26 (Base 50)    
Moisture  
Dew Point 68 °F    
Average Humidity 80    
Maximum Humidity 93    
Minimum Humidity 67    
Precipitation  
Precipitation 0.00 in 0.06 in 0.93 in (1942)
Month to date precipitation 1.99 1.70  
Year to date precipitation 37.81 37.01  
Snow  
Snow 0.00 in - - ()
Month to date snowfall  
Since 1 July snowfall  
Since 1 September snowfall  
Snow Depth -    
Sea Level Pressure  
Sea Level Pressure 30.16 in    
Wind  
Wind Speed 9 mph (ENE)    
Max Wind Speed 18 mph    
Max Gust Speed 24 mph    
Visibility 10 miles    
Events      
T = Trace of Precipitation, MM = Missing Value Source: NWS Daily Summary

Daily Weather History Graph

Daily Weather History Graph

Search for Another Location

Airport or City:

Trip Planner

Search our weather history database for the weather conditions in past years. The results will help you decide how hot, cold, wet, or windy it might be!

Date:

Astronomy

Nov. 22, 2010 Rise Set
Actual Time 6:47 AM EST 5:38 PM EST
Civil Twilight 6:23 AM EST 6:02 PM EST
Nautical Twilight 5:55 AM EST 6:30 PM EST
Astronomical Twilight 5:28 AM EST 6:57 PM EST
Moon 6:29 PM EST (11/22) 7:38 AM EST (11/22)
Length of Visible Light 11h 39m
Length of Day
10h 50m
Full, 99% of the Moon is Illuminated
Nov 22
Full
Nov 28
Last Quarter
Dec 5
New
Dec 13
First Quarter
Dec 21
Full

Hourly Weather History & Observations

Time (EST) Temp. Heat Index Dew Point Humidity Pressure Visibility Wind Dir Wind Speed Gust Speed Precip Events Conditions
12:53 AM 73.9 °F - 66.9 °F 79% 30.19 in 10.0 mi NE 5.8 mph - N/A   Scattered Clouds
1:53 AM 73.0 °F - 66.9 °F 81% 30.17 in 10.0 mi ENE 4.6 mph - N/A   Clear
2:53 AM 73.0 °F - 66.9 °F 81% 30.16 in 10.0 mi NE 5.8 mph - N/A   Clear
3:53 AM 72.0 °F - 68.0 °F 87% 30.16 in 10.0 mi NE 4.6 mph - N/A   Clear
4:53 AM 72.0 °F - 66.9 °F 84% 30.15 in 10.0 mi ENE 4.6 mph - N/A   Clear
5:53 AM 72.0 °F - 68.0 °F 87% 30.16 in 10.0 mi NE 4.6 mph - N/A   Clear
6:53 AM 72.0 °F - 69.1 °F 91% 30.17 in 10.0 mi NNE 4.6 mph - N/A   Clear
7:53 AM 73.0 °F - 69.1 °F 87% 30.18 in 10.0 mi NE 9.2 mph - N/A   Clear
8:53 AM 75.0 °F - 69.1 °F 82% 30.20 in 10.0 mi NE 8.1 mph - N/A   Clear
9:53 AM 75.9 °F - 69.1 °F 79% 30.20 in 10.0 mi NE 11.5 mph - N/A   Clear
10:53 AM 79.0 °F - 70.0 °F 74% 30.19 in 10.0 mi NE 8.1 mph - N/A   Clear
11:53 AM 81.0 °F 84.1 °F 69.1 °F 67% 30.17 in 10.0 mi East 12.7 mph 19.6 mph N/A   Partly Cloudy
12:53 PM 80.1 °F 82.7 °F 68.0 °F 67% 30.15 in 10.0 mi East 16.1 mph - N/A   Partly Cloudy
1:53 PM 80.1 °F 82.9 °F 69.1 °F 69% 30.13 in 10.0 mi East 13.8 mph 23.0 mph N/A   Clear
2:53 PM 80.1 °F 82.9 °F 69.1 °F 69% 30.12 in 10.0 mi East 12.7 mph 20.7 mph N/A   Clear
3:53 PM 79.0 °F - 68.0 °F 69% 30.11 in 10.0 mi East 13.8 mph 23.0 mph N/A   Scattered Clouds
4:53 PM 77.0 °F - 68.0 °F 74% 30.12 in 10.0 mi East 11.5 mph 18.4 mph N/A   Scattered Clouds
5:53 PM 75.9 °F - 66.9 °F 74% 30.13 in 10.0 mi East 10.4 mph 19.6 mph N/A   Clear
6:53 PM 75.9 °F - 66.9 °F 74% 30.14 in 10.0 mi ENE 9.2 mph - N/A   Scattered Clouds
7:53 PM 75.0 °F - 68.0 °F 79% 30.16 in 10.0 mi ENE 5.8 mph - N/A   Clear
8:53 PM 75.0 °F - 68.0 °F 79% 30.16 in 10.0 mi ENE 8.1 mph - N/A   Clear
9:53 PM 73.9 °F - 69.1 °F 85% 30.16 in 10.0 mi ENE 8.1 mph - N/A   Clear
10:53 PM 73.9 °F - 68.0 °F 82% 30.15 in 10.0 mi NE 5.8 mph - N/A   Clear
11:53 PM 73.9 °F - 70.0 °F 87% 30.14 in 10.0 mi ENE 5.8 mph - N/A   Mostly Cloudy